Date,TemperatureHighF,TemperatureAvgF,TemperatureLowF,DewpointHighF,DewpointAvgF,DewpointLowF,HumidityHigh,HumidityAvg,HumidityLow,PressureMaxIn,PressureMinIn,WindSpeedMaxMPH,WindSpeedAvgMPH,GustSpeedMaxMPH,PrecipitationSumIn
2013-10-26,61.5,37.6,40.5,30.1,10.8,-99.9,63,48,47,29.91,29.89,0,-143,0,0.20
2013-10-27,60.1,44.2,28.4,37.6,29.6,-99.9,99,61,40,30.08,29.74,9,-11,0,2.19
2013-10-28,44.4,36.8,27.9,30.2,24.8,21.1,79,63,44,30.31,30.08,10,4,0,0.00
2013-10-29,42.4,36.9,27.0,37.8,28.8,21.2,96,72,64,30.20,29.85,8,3,0,0.01
2013-10-30,48.9,44.3,38.8,48.6,44.0,38.0,99,99,97,29.84,29.48,5,1,0,0.11
2013-10-31,49.1,42.9,39.2,48.8,42.3,38.4,99,98,93,29.47,29.28,6,2,0,0.02
2013-11-1,52.7,42.8,34.3,39.8,36.9,30.2,99,81,56,29.84,29.32,6,2,0,0.00
2013-11-2,52.7,39.7,31.5,35.9,31.3,29.3,93,74,44,30.08,29.84,4,2,0,0.00
2013-11-3,55.0,43.3,31.6,36.3,32.4,28.6,94,68,45,30.10,29.87,8,4,0,0.00
2013-11-4,48.6,42.6,31.6,45.5,36.5,31.1,99,80,60,30.12,29.81,8,3,0,0.00
2013-11-5,45.9,34.7,25.7,37.1,30.9,25.5,99,88,60,30.20,29.96,8,1,0,0.02
2013-11-6,41.2,34.2,30.0,32.2,27.9,22.7,99,79,52,30.11,29.96,5,2,0,0.23
2013-11-7,35.8,29.6,23.0,29.9,27.3,22.8,99,91,79,30.17,30.10,5,2,0,0.00
2013-11-8,45.3,39.3,22.3,40.3,30.7,22.1,99,72,58,30.12,29.52,11,4,0,0.00
2013-11-9,45.1,40.9,36.0,40.6,32.8,25.7,86,73,57,30.13,29.55,8,4,0,0.00
2013-11-10,43.2,37.6,30.4,31.2,28.9,26.1,85,71,58,30.26,30.01,7,2,0,0.00
2013-11-11,38.1,25.1,14.9,31.2,14.3,8.3,85,64,46,30.62,30.03,8,4,0,0.00
2013-11-12,30.0,18.9,10.2,13.5,9.4,7.1,87,68,41,30.66,30.31,6,2,0,0.00
2013-11-13,50.7,36.0,19.0,34.7,24.4,12.5,77,63,48,30.30,29.73,10,3,0,0.00
2013-11-14,52.7,40.5,34.2,38.0,33.4,28.7,95,76,56,29.72,29.62,6,1,0,0.00
2013-11-15,56.5,40.9,24.6,41.0,34.4,24.4,99,80,52,29.72,29.53,6,2,0,0.00
2013-11-16,49.5,43.6,40.5,49.2,41.4,34.9,99,92,76,29.53,29.12,9,3,0,0.20
2013-11-17,43.5,38.9,31.6,42.1,35.9,24.9,99,89,76,29.75,29.21,8,3,0,0.00
2013-11-18,37.2,29.4,20.1,25.4,21.4,18.5,97,73,53,30.21,29.76,11,3,0,0.00
2013-11-19,46.4,33.9,18.7,30.8,25.6,18.0,99,74,51,30.21,29.87,9,4,0,0.00
2013-11-20,42.3,39.8,36.1,35.8,30.3,25.8,98,70,53,29.98,29.84,8,4,0,0.00
2013-11-21,37.0,31.0,24.3,36.7,28.9,16.7,99,92,72,30.44,29.98,8,2,0,0.00
2013-11-22,32.7,23.0,12.7,16.7,12.1,3.7,91,65,37,30.53,30.37,8,3,0,0.00
2013-11-23,19.9,11.4,6.1,4.7,2.2,-1.9,83,67,42,30.74,30.53,6,2,0,0.00
2013-11-24,30.7,17.1,5.4,16.2,8.2,1.7,90,69,50,30.60,29.86,9,4,0,0.00
2013-11-25,39.2,33.2,27.3,28.1,23.3,16.2,79,67,59,29.95,29.78,11,4,0,0.00
2013-11-26,29.8,21.1,13.8,20.4,8.4,1.8,72,58,44,30.23,29.95,9,4,0,0.00
2013-11-27,23.7,17.2,6.3,10.6,7.7,3.4,91,67,53,30.25,29.94,5,2,0,0.00
2013-11-28,28.9,21.1,9.3,14.5,11.7,6.7,94,67,53,30.38,29.93,7,2,0,0.00
2013-11-29,32.9,22.2,7.9,21.5,15.1,6.0,94,75,54,30.38,29.99,7,2,0,0.00
2013-11-30,42.3,31.6,23.2,28.2,24.4,20.6,94,75,56,30.00,29.87,5,1,0,0.00
2013-12-1,36.0,26.6,17.1,25.8,22.3,15.7,99,85,65,30.04,29.78,3,0,0,0.00
2013-12-2,37.0,31.5,25.0,33.5,29.7,23.5,99,93,80,29.77,29.41,6,2,0,0.00
2013-12-3,34.2,33.1,31.1,33.9,32.9,30.9,99,99,99,29.62,29.41,6,3,0,0.35
2013-12-4,32.5,28.1,13.1,32.3,27.6,11.0,99,98,91,29.61,29.30,8,3,0,0.00
2013-12-5,12.0,5.9,-1.1,9.9,1.7,-3.8,92,83,68,30.19,29.55,8,4,0,0.00
2013-12-6,9.3,-1.7,-7.1,-0.9,-6.4,-11.6,89,81,61,30.47,30.20,6,3,0,0.00
2013-12-7,6.3,-4.7,-11.6,-6.0,-10.2,-14.6,89,78,55,30.58,30.42,5,2,0,0.00
2013-12-8,15.4,6.8,-3.5,9.0,3.8,-6.4,93,87,75,30.42,29.87,6,2,0,0.00
2013-12-9,9.9,0.3,-6.3,8.5,-4.0,-9.7,94,82,63,29.97,29.71,6,2,0,0.00
2013-12-10,12.0,7.1,1.2,10.6,1.9,-3.0,94,79,63,30.11,29.61,6,2,0,0.00
2013-12-11,5.9,-2.4,-8.5,-0.3,-9.6,-13.0,80,71,52,30.42,30.12,4,2,0,0.00
2013-12-12,23.5,12.1,0.0,12.1,6.1,-5.2,93,77,55,30.16,29.99,4,1,0,0.00
2013-12-13,17.4,13.4,10.4,10.9,8.6,6.3,95,81,70,30.13,29.98,8,4,0,0.00
2013-12-14,20.5,10.4,0.1,10.6,6.0,-4.3,91,82,64,30.13,29.89,5,2,0,0.00
2013-12-15,12.7,2.4,-1.3,-4.0,-6.1,-8.5,81,68,45,30.00,29.93,4,2,0,0.00
2013-12-16,25.2,9.7,-0.2,21.6,5.1,-8.8,98,81,66,29.97,29.75,5,2,0,0.00
2013-12-17,30.6,23.4,6.3,27.6,17.2,4.0,95,77,60,29.96,29.71,7,3,0,0.00
2013-12-18,41.0,22.9,5.4,27.3,17.8,3.8,96,82,56,29.92,29.49,6,2,0,0.10
2013-12-19,27.3,19.1,16.0,23.7,14.0,10.3,91,80,67,29.92,29.62,8,3,0,0.00
2013-12-20,21.2,17.7,16.0,15.0,13.7,12.6,93,84,73,29.86,29.69,5,2,0,0.00
2013-12-21,25.0,19.7,16.9,17.7,15.3,13.5,89,83,69,29.82,29.69,4,2,0,0.00
2013-12-22,22.5,15.3,3.9,17.8,11.6,1.2,90,85,73,30.08,29.77,5,2,0,0.00
2013-12-23,6.1,0.0,-6.2,0.9,-5.3,-10.2,88,78,61,30.35,30.08,6,3,0,0.00
2013-12-24,10.4,-0.7,-15.0,5.3,-6.2,-18.2,91,78,53,30.34,29.98,6,2,0,0.00
2013-12-25,31.3,16.3,8.1,24.6,12.8,5.5,95,86,62,29.99,29.88,5,1,0,0.00
2013-12-26,30.2,19.6,9.9,21.9,16.3,8.8,99,87,68,30.02,29.92,3,1,0,0.00
2013-12-27,41.9,28.0,9.9,31.3,24.4,9.0,99,88,62,30.01,29.74,7,2,0,0.59
2013-12-28,47.5,31.9,22.6,32.8,27.8,20.9,99,86,56,29.81,29.47,8,2,0,0.19
2013-12-29,20.8,1.0,-11.9,19.4,-6.8,-17.0,94,69,51,30.15,29.82,12,3,0,0.00
2013-12-30,2.3,-6.0,-16.8,-2.8,-10.3,-20.6,89,81,69,30.15,30.01,5,1,0,0.00
2013-12-31,3.7,-5.2,-11.7,-5.1,-10.0,-15.3,91,80,64,30.25,30.03,4,1,0,0.00
2014-1-1,5.4,-2.1,-8.3,-5.1,-9.3,-14.9,77,71,60,30.33,30.24,4,2,0,0.00
2014-1-2,12.0,-2.1,-12.3,-7.3,-11.2,-16.0,84,66,38,30.34,30.21,4,1,0,0.00